Clines Corners, NM

5:28 PM MDT on August 28, 2016 (GMT -0600)
Clines Corner

Weather History for KCQC - January, 2013

Change the Weather History Date:

Wednesday, January 16, 2013

  Actual Average (KSAF) Record (KSAF)
Temperature  
Mean Temperature 22 °F -  
Max Temperature 35 °F 36 °F 61 °F (2000)
Min Temperature 8 °F 32 °F 3 °F (2007)
Degree Days  
Heating Degree Days 44    
Moisture  
Dew Point 6 °F    
Average Humidity 54    
Maximum Humidity 67    
Minimum Humidity 40    
Precipitation  
Precipitation 0.00 in - - ()
Sea Level Pressure  
Sea Level Pressure 30.42 in    
Wind  
Wind Speed 17 mph (NW)    
Max Wind Speed 23 mph    
Max Gust Speed 31 mph    
Visibility 10 miles    
Events      
Averages and records for this station are not official NWS values.
T = Trace of Precipitation, MM = Missing Value Source: NWS Daily Summary

Daily Weather History Graph

Daily Weather History Graph

Search for Another Location

Airport or City:

Trip Planner

Search our weather history database for the weather conditions in past years. The results will help you decide how hot, cold, wet, or windy it might be!

Date:

Astronomy

Jan. 16, 2013 Rise Set
Actual Time 7:09 AM MST 5:15 PM MST
Civil Twilight 6:42 AM MST 5:43 PM MST
Nautical Twilight 6:11 AM MST 6:14 PM MST
Astronomical Twilight 5:40 AM MST 6:44 PM MST
Moon 10:02 AM MST (1/16) 10:53 PM MST (1/16)
Length of Visible Light 11h 00m
Length of Day
10h 05m
Waxing Crescent, 29% of the Moon is Illuminated
Jan 16
Waxing Crescent
Jan 18
First Quarter
Jan 26
Full
Feb 3
Last Quarter
Feb 10
New

Hourly Weather History & Observations

Time (MST) Temp. Windchill Dew Point Humidity Pressure Visibility Wind Dir Wind Speed Gust Speed Precip Events Conditions
12:53 AM 9.0 °F -11.0 °F -0.9 °F 64% 30.35 in 10.0 mi NW 21.9 mph - N/A   Clear
1:53 AM 10.9 °F -8.3 °F -0.9 °F 59% 30.36 in 10.0 mi NW 21.9 mph - N/A   Clear
2:53 AM 8.1 °F -11.7 °F -0.9 °F 67% 30.37 in 10.0 mi WNW 20.7 mph - N/A   Clear
3:53 AM 9.0 °F -11.4 °F -0.9 °F 64% 30.37 in 10.0 mi NW 23.0 mph 31.1 mph N/A   Clear
4:53 AM 8.1 °F -10.7 °F -2.0 °F 64% 30.39 in 10.0 mi WNW 18.4 mph - N/A   Clear
5:53 AM 9.0 °F -10.0 °F -2.0 °F 61% 30.44 in 10.0 mi WNW 19.6 mph - N/A   Clear
6:53 AM 10.0 °F -9.1 °F -0.9 °F 61% 30.45 in 10.0 mi NW 20.7 mph - N/A   Clear
7:53 AM 10.9 °F -6.5 °F -0.0 °F 61% 30.46 in 10.0 mi WNW 17.3 mph - N/A   Clear
8:53 AM 15.1 °F -2.0 °F 1.9 °F 56% 30.47 in 10.0 mi NW 19.6 mph - N/A   Clear
9:53 AM 19.0 °F 4.0 °F 5.0 °F 54% 30.45 in 10.0 mi NW 17.3 mph - N/A   Clear
10:53 AM 23.0 °F 10.1 °F 8.1 °F 53% 30.43 in 10.0 mi NW 15.0 mph - N/A   Clear
11:53 AM 26.1 °F 13.1 °F 9.0 °F 49% 30.40 in 10.0 mi NW 17.3 mph 24.2 mph N/A   Clear
12:53 PM 30.0 °F 18.3 °F 10.9 °F 45% 30.36 in 10.0 mi NW 17.3 mph - N/A   Clear
1:53 PM 33.1 °F 23.0 °F 14.0 °F 46% 30.33 in 10.0 mi WNW 15.0 mph - N/A   Clear
2:53 PM 35.1 °F 25.5 °F 12.9 °F 40% 30.34 in 10.0 mi WNW 15.0 mph - N/A   Clear
3:53 PM 33.1 °F 23.0 °F 12.0 °F 42% 30.35 in 10.0 mi NW 15.0 mph - N/A   Clear
4:53 PM 30.9 °F 25.2 °F 10.9 °F 43% 30.41 in 10.0 mi NW 5.8 mph - N/A   Clear
5:53 PM 25.0 °F 19.3 °F 9.0 °F 51% 30.46 in 10.0 mi NW 4.6 mph - N/A   Clear
6:53 PM 23.0 °F 15.8 °F 9.0 °F 55% 30.48 in 10.0 mi NNW 5.8 mph - N/A   Clear
7:53 PM 23.0 °F 13.1 °F 9.0 °F 55% 30.50 in 10.0 mi NNW 9.2 mph - N/A   Clear
8:53 PM 24.1 °F 15.2 °F 9.0 °F 53% 30.48 in 10.0 mi NW 8.1 mph - N/A   Clear
9:53 PM 23.0 °F 17.0 °F 9.0 °F 55% 30.48 in 10.0 mi West 4.6 mph - N/A   Clear
10:53 PM 24.1 °F 18.2 °F 9.0 °F 53% 30.45 in 10.0 mi NW 4.6 mph - N/A   Clear
11:53 PM 26.1 °F 18.4 °F 10.0 °F 51% 30.44 in 10.0 mi NW 6.9 mph - N/A   Clear